When you browse on this site, cookies collect data to enhance your experience and personalize the content and advertising you see.
Visit our Privacy Policy to learn more. By continuing to use the site, you agree to this use of cookies and data.
  • In Romania
  • List of Countries
  • For 7 days
  • Water Temperature
  • Satellite Maps
  • Weather Map
  • Weather Widgets
  • user-avatar
    Login

    Hourly Weather Aron

    Today, 18 February, Monday

    Time Temperature Precipitation Wind Pressure Humidity
    00:00 +3°C° 0 mm 3 mps 674 mmHg 45%
    01:00 +3°C° 0 mm 3 mps 673 mmHg 46%
    02:00 +2°C° 0 mm 3 mps 673 mmHg 46%
    03:00 +2°C° 0 mm 3 mps 673 mmHg 47%
    04:00 +2°C° 0 mm 3 mps 673 mmHg 47%
    05:00 +2°C° 0 mm 3 mps 672 mmHg 47%
    06:00 +2°C° 0 mm 2 mps 672 mmHg 50%
    07:00 +3°C° 0 mm 2 mps 673 mmHg 49%
    08:00 +5°C° 0 mm 2 mps 673 mmHg 47%
    09:00 +7°C° 0 mm 2 mps 674 mmHg 45%
    10:00 +9°C° 0 mm 2 mps 674 mmHg 43%
    11:00 +12°C° 0 mm 2 mps 674 mmHg 41%
    12:00 +14°C° 0 mm 1 mps 675 mmHg 39%
    13:00 +14°C° 0 mm 1 mps 674 mmHg 40%
    14:00 +13°C° 0 mm 2 mps 674 mmHg 42%
    15:00 +13°C° 0 mm 2 mps 673 mmHg 44%
    16:00 +10°C° 0 mm 2 mps 673 mmHg 52%
    17:00 +7°C° 0 mm 2 mps 673 mmHg 59%
    18:00 +5°C° 0 mm 2 mps 672 mmHg 67%
    19:00 +5°C° 0 mm 2 mps 672 mmHg 64%
    20:00 +4°C° 0 mm 2 mps 672 mmHg 60%
    21:00 +4°C° 0 mm 2 mps 673 mmHg 57%
    22:00 +4°C° 0 mm 2 mps 673 mmHg 55%
    23:00 +3°C° 0 mm 2 mps 673 mmHg 54%

    Tomorrow, 19 February, Tuesday

    Time Temperature Precipitation Wind Pressure Humidity
    00:00 +3°C° 0 mm 2 mps 673 mmHg 52%
    01:00 +4°C° 0 mm 1 mps 673 mmHg 52%
    02:00 +4°C° 0 mm 1 mps 673 mmHg 51%
    03:00 +4°C° 0 mm 1 mps 673 mmHg 51%
    04:00 +3°C° 0 mm 1 mps 673 mmHg 53%
    05:00 +3°C° 0 mm 1 mps 673 mmHg 55%
    06:00 +3°C° 0 mm 1 mps 673 mmHg 57%
    07:00 +3°C° 0 mm 0 mps 673 mmHg 57%
    08:00 +5°C° 0 mm 0 mps 674 mmHg 57%
    09:00 +6°C° 0 mm 0 mps 674 mmHg 57%
    10:00 +7°C° 0 mm 0 mps 675 mmHg 56%
    11:00 +9°C° 0 mm 1 mps 675 mmHg 56%
    12:00 +11°C° 0 mm 1 mps 675 mmHg 55%
    13:00 +10°C° 0 mm 1 mps 675 mmHg 57%
    14:00 +10°C° 0 mm 1 mps 674 mmHg 59%
    15:00 +10°C° 0 mm 1 mps 674 mmHg 60%
    16:00 +8°C° 0 mm 1 mps 674 mmHg 71%
    17:00 +6°C° 0 mm 1 mps 673 mmHg 81%
    18:00 +4°C° 0 mm 0 mps 673 mmHg 91%
    19:00 +4°C° 0 mm 1 mps 673 mmHg 87%
    20:00 +4°C° 0 mm 1 mps 674 mmHg 83%
    21:00 +4°C° 0 mm 1 mps 674 mmHg 79%
    22:00 +4°C° 0 mm 1 mps 674 mmHg 76%
    23:00 +4°C° 0 mm 1 mps 674 mmHg 73%

    Day after tomorrow, 20 February, Wednesday

    Time Temperature Precipitation Wind Pressure Humidity
    00:00 +4°C° 0 mm 1 mps 674 mmHg 69%
    01:00 +4°C° 0 mm 1 mps 674 mmHg 67%
    02:00 +4°C° 0 mm 1 mps 674 mmHg 65%
    03:00 +4°C° 0 mm 1 mps 674 mmHg 63%
    04:00 +4°C° 0 mm 1 mps 674 mmHg 62%
    05:00 +4°C° 0 mm 1 mps 674 mmHg 61%
    06:00 +4°C° 0 mm 1 mps 674 mmHg 60%
    07:00 +5°C° 0 mm 1 mps 675 mmHg 57%
    08:00 +6°C° 0 mm 0 mps 675 mmHg 54%
    09:00 +8°C° 0 mm 0 mps 676 mmHg 51%
    10:00 +9°C° 0 mm 0 mps 676 mmHg 47%
    11:00 +10°C° 0 mm 0 mps 677 mmHg 43%
    12:00 +13°C° 0 mm 1 mps 677 mmHg 39%
    13:00 +13°C° 0 mm 1 mps 677 mmHg 41%
    14:00 +12°C° 0 mm 1 mps 676 mmHg 43%
    15:00 +12°C° 0 mm 1 mps 676 mmHg 45%
    16:00 +10°C° 0 mm 1 mps 676 mmHg 54%
    17:00 +8°C° 0 mm 1 mps 676 mmHg 63%
    18:00 +6°C° 0 mm 1 mps 675 mmHg 73%
    19:00 +6°C° 0 mm 1 mps 676 mmHg 71%
    20:00 +6°C° 0 mm 1 mps 676 mmHg 70%
    21:00 +4°C° 0 mm 2 mps 677 mmHg 69%
    22:00 +4°C° 0 mm 2 mps 677 mmHg 68%
    23:00 +4°C° 0 mm 2 mps 677 mmHg 67%

    21 February, Thursday

    Time Temperature Precipitation Wind Pressure Humidity
    00:00 +4°C° 0 mm 2 mps 677 mmHg 66%
    01:00 +4°C° 0 mm 2 mps 677 mmHg 65%
    02:00 +5°C° 0 mm 1 mps 677 mmHg 65%
    03:00 +5°C° 0 mm 1 mps 677 mmHg 64%
    04:00 +5°C° 0 mm 1 mps 677 mmHg 63%
    05:00 +5°C° 0 mm 1 mps 677 mmHg 63%
    06:00 +5°C° 0 mm 1 mps 677 mmHg 62%
    07:00 +6°C° 0 mm 1 mps 678 mmHg 58%
    08:00 +8°C° 0 mm 1 mps 679 mmHg 55%
    09:00 +9°C° 0 mm 0 mps 680 mmHg 51%
    10:00 +10°C° 0 mm 0 mps 680 mmHg 47%
    11:00 +13°C° 0 mm 1 mps 680 mmHg 44%
    12:00 +14°C° 0 mm 1 mps 681 mmHg 40%
    13:00 +14°C° 0 mm 1 mps 680 mmHg 42%
    14:00 +14°C° 0 mm 1 mps 680 mmHg 45%
    15:00 +14°C° 0 mm 1 mps 680 mmHg 47%
    16:00 +11°C° 0 mm 1 mps 680 mmHg 56%
    17:00 +9°C° 0 mm 1 mps 679 mmHg 65%
    18:00 +7°C° 0 mm 1 mps 679 mmHg 75%
    19:00 +7°C° 0 mm 1 mps 680 mmHg 73%
    20:00 +7°C° 0 mm 1 mps 680 mmHg 71%
    21:00 +7°C° 0 mm 1 mps 680 mmHg 70%
    22:00 +7°C° 0 mm 1 mps 680 mmHg 69%
    23:00 +6°C° 0 mm 1 mps 681 mmHg 68%

    22 February, Friday

    Time Temperature Precipitation Wind Pressure Humidity
    00:00 +6°C° 0 mm 1 mps 681 mmHg 67%
    01:00 +6°C° 0 mm 1 mps 681 mmHg 66%
    02:00 +6°C° 0 mm 1 mps 680 mmHg 64%
    03:00 +6°C° 0 mm 1 mps 680 mmHg 63%
    04:00 +6°C° 0 mm 1 mps 680 mmHg 58%
    05:00 +6°C° 0 mm 1 mps 680 mmHg 52%
    06:00 +5°C° 0 mm 1 mps 680 mmHg 47%
    07:00 +7°C° 0 mm 1 mps 681 mmHg 44%
    08:00 +9°C° 0 mm 1 mps 682 mmHg 40%
    09:00 +10°C° 0 mm 0 mps 682 mmHg 36%
    10:00 +13°C° 0 mm 1 mps 682 mmHg 33%
    11:00 +14°C° 0 mm 1 mps 683 mmHg 31%
    12:00 +16°C° 0 mm 1 mps 683 mmHg 28%
    13:00 +16°C° 0 mm 1 mps 683 mmHg 32%
    14:00 +15°C° 0 mm 1 mps 682 mmHg 36%
    15:00 +15°C° 0 mm 1 mps 682 mmHg 41%
    16:00 +13°C° 0 mm 1 mps 681 mmHg 48%
    17:00 +11°C° 0 mm 1 mps 681 mmHg 56%
    18:00 +8°C° 0 mm 1 mps 680 mmHg 63%
    19:00 +8°C° 0 mm 1 mps 680 mmHg 60%
    20:00 +8°C° 0 mm 1 mps 680 mmHg 57%
    21:00 +7°C° 0 mm 2 mps 680 mmHg 54%
    22:00 +7°C° 0 mm 2 mps 680 mmHg 51%
    23:00 +7°C° 0 mm 2 mps 680 mmHg 48%

    23 February, Saturday

    Time Temperature Precipitation Wind Pressure Humidity
    00:00 +7°C° 0 mm 2 mps 681 mmHg 44%
    01:00 +7°C° 0 mm 2 mps 680 mmHg 44%
    02:00 +7°C° 0 mm 2 mps 680 mmHg 44%
    03:00 +7°C° 0 mm 2 mps 680 mmHg 43%
    04:00 +6°C° 0 mm 2 mps 680 mmHg 44%
    05:00 +6°C° 0 mm 2 mps 681 mmHg 45%
    06:00 +6°C° 0 mm 2 mps 681 mmHg 46%
    07:00 +8°C° 0 mm 2 mps 681 mmHg 46%
    08:00 +11°C° 0 mm 1 mps 682 mmHg 45%
    09:00 +13°C° 0 mm 1 mps 683 mmHg 45%
    10:00 +15°C° 0 mm 1 mps 683 mmHg 41%
    11:00 +18°C° 0 mm 1 mps 684 mmHg 37%
    12:00 +20°C° 0 mm 1 mps 684 mmHg 33%
    13:00 +19°C° 0 mm 1 mps 684 mmHg 36%
    14:00 +19°C° 0 mm 1 mps 683 mmHg 38%
    15:00 +19°C° 0 mm 1 mps 683 mmHg 41%
    16:00 +16°C° 0 mm 1 mps 683 mmHg 50%
    17:00 +13°C° 0 mm 1 mps 682 mmHg 59%
    18:00 +11°C° 0 mm 1 mps 682 mmHg 69%
    19:00 +11°C° 0 mm 1 mps 682 mmHg 67%
    20:00 +10°C° 0 mm 1 mps 682 mmHg 66%
    21:00 +9°C° 0 mm 2 mps 683 mmHg 64%
    22:00 +10°C° 0 mm 1 mps 683 mmHg 62%
    23:00 +9°C° 0 mm 1 mps 683 mmHg 60%
    Show more